Location: Bratislava
(48.1500°N, 17.1170°E)
Time: 07:52:59
(UTC+01:00)

Tiangong 2 - Pass Details

Date: 27 January 2019
Orbit: 380 x 390 km, 42.8° (Epoch: 21 February)

Event Time Altitude Azimuth Distance (km) Brightness Sun altitude
Exits shadow 05:28:21 14° 186° (S) 1,178 3.5 -19.6°
Drops below altitude 10° 05:29:34 10° 165° (SSE) 1,405 4.2 -19.4°
Sets 05:32:13 0° 141° (SE) 2,259 5.7 -19.0°
